Regional Weather Roundup
Issued by NWS Little Rock, AR

Home | Current Version | Previous Version | Graphics & Text | Print | Product List | Glossary On
Versions: 1 2 3 4 5 6 7 8 9 10 11 12 13 14 15 16 17 18 19 20 21 22 23 24 25 26 27 28 29 30 31 32 33 34 35 36 37 38 39 40 41 42 43 44 45 46 47 48 49 50
000
ASUS44 KLZK 012205
RWRLZK

WEATHER ROUNDUP FOR ARKANSAS
NATIONAL WEATHER SERVICE LITTLE ROCK AR
400 PM CST SUN MAR 01 2015

NOTE: "FAIR" INDICATES FEW OR NO CLOUDS BELOW 12,000 FEET WITH NO
SIGNIFICANT WEATHER AND/OR OBSTRUCTIONS TO VISIBILITY.

ARZ001-003-010-029-012300-
NORTHWEST ARKANSAS

CITY           SKY/WX    TMP DP  RH WIND       PRES   REMARKS
FAYETTEVILLE   CLOUDY    33  31  92 N7        30.34R FOG     WCI  27
FORT SMITH     CLOUDY    39  34  82 W6        30.35S
HARRISON       CLOUDY    33  31  92 NW6       30.32R FOG     WCI  28
BENTONVILLE    CLOUDY    32  28  86 NW3       30.35R
ROGERS         CLOUDY    33  29  85 NW5       30.34R WCI  29
SILOAM SPGS    CLOUDY    34  27  75 CALM      30.36R
HIGHFILL       CLOUDY    33  30  88 NW5       30.34R WCI  29
$$

ARZ004-005-016-012300-
NORTH CENTRAL ARKANSAS

CITY           SKY/WX    TMP DP  RH WIND       PRES   REMARKS
BATESVILLE     CLOUDY    39  36  87 CALM      30.33F
FLIPPIN        CLOUDY    36  30  80 N5        30.33S
MTN HOME       CLOUDY    35  35 100 NW3       30.32F
$$

ARZ040-041-012300-
WEST CENTRAL ARKANSAS

CITY           SKY/WX    TMP DP  RH WIND       PRES   REMARKS
MENA           CLOUDY    41  37  87 NE5       30.31S
MOUNT IDA      LGT RAIN  39  37  92 NW5       30.29S FOG
$$

ARZ009-017-025-026-028-012300-
NORTHEAST ARKANSAS

CITY           SKY/WX    TMP DP  RH WIND       PRES   REMARKS
CORNING        CLOUDY    37  34  87 CALM      30.35S
JONESBORO      CLOUDY    37  33  85 VRB3      30.33S
NEWPORT        CLOUDY    38  35  89 N3        30.35F
WALNUT RIDGE   CLOUDY    37  32  81 CALM      30.34R
BLYTHEVILLE    CLOUDY    36  34  92 NE8       30.34S FOG
$$

ARZ022-023-033-042-044-012300-
CENTRAL ARKANSAS

CITY           SKY/WX    TMP DP  RH WIND       PRES   REMARKS
LITTLE ROCK    LGT RAIN  41  38  89 N6        30.34R FOG
N LITTLE ROCK  CLOUDY    39  39 100 N6        30.34R
JACKSONVILLE   LGT RAIN  41  39  93 NW3       30.32S FOG
SEARCY         CLOUDY    42  39  89 NE8       30.33F
HOT SPRINGS    CLOUDY    42  40  92 W3        30.32R FOG
RUSSELLVILLE   CLOUDY    40  37  89 NW6       30.33F FOG
CLINTON        CLOUDY    41  36  81 CALM      30.36R
$$

ARZ036-012300-
EAST ARKANSAS

CITY           SKY/WX    TMP DP  RH WIND       PRES   REMARKS
WEST MEMPHIS   LGT RAIN  40  40 100 N10       30.31F FOG
$$

ARZ050-053-066-070-073-012300-
SOUTHWEST ARKANSAS

CITY           SKY/WX    TMP DP  RH WIND       PRES   REMARKS
ARKADELPHIA    FOG       42  42 100 N3        30.33R VSB 3/4
CAMDEN         LGT RAIN  41  37  87 MISG      30.31S
TEXARKANA      LGT RAIN  42  41  96 NE5       30.30S FOG
EL DORADO      LGT RAIN  41  39  93 N5        30.29F FOG
DE QUEEN       LGT RAIN  44  42  93 N5        30.30S FOG
$$

ARZ056-057-069-012300-
SOUTHEAST ARKANSAS

CITY           SKY/WX    TMP DP  RH WIND       PRES   REMARKS
PINE BLUFF     LGT RAIN  39  37  92 N7        30.32S FOG
STUTTGART      CLOUDY    39  36  87 N10       30.34R
MONTICELLO     HVY RAIN  41  40  96 CALM      30.29F FOG

$$




USA.gov is the U.S. government's official web portal to all federal, state and local government web resources and services.